Regional Weather Roundup
Issued by NWS Albany, NY

Current Version | Previous Version | Text Only | Print | Product List | Glossary On
Versions: 1 2 3 4 5 6 7 8 9 10 11 12 13 14 15 16 17 18 19 20 21
000
ASUS41 KALY 311310
RWRALY

NEW YORK STATE HOURLY WEATHER ROUNDUP
NATIONAL WEATHER SERVICE ALBANY NY
900 AM EDT FRI OCT 31 2014

NOTE: "FAIR" INDICATES FEW OR NO CLOUDS BELOW 12,000 FEET WITH NO
SIGNIFICANT WEATHER AND/OR NO OBSTRUCTIONS TO VISIBILITY.

NYZ032-033-038>043-046>054-057>066-NYZ062>081-311400-
EAST


CITY           SKY/WX    TMP DP  RH WIND       PRES   REMARKS
ALBANY         FOG       33  32  96 CALM      30.06S VSB 1/8
GLENS FALLS    MOSUNNY   35  33  92 E3        30.06S
POUGHKEEPSIE   CLOUDY    36  34  92 CALM      30.05R FOG
NEWBURGH       PTSUNNY   36  34  93 W5        30.05R WCI  32
MONTGOMERY     SUNNY     32  30  92 CALM      30.04R
WHITE PLAINS   PTSUNNY   44  32  62 N3        30.01R
ISLIP          PTSUNNY   48  39  71 NE8       29.99S
NEW YORK CITY  CLOUDY    47  33  58 N9        30.03R
CENTRAL PARK   CLOUDY    47  32  56 N3        30.05R
$$

NYZ005>009-017-018-044>046-055-056-311400-
CENTRAL


CITY           SKY/WX    TMP DP  RH WIND       PRES   REMARKS
FULTON         CLOUDY    41  37  86 VRB3      30.01S
SYRACUSE       PTSUNNY   39  36  89 E7        30.02R WCI  34
ROME           MOSUNNY   33  32  96 SE6       30.06R WCI  28
ELMIRA         CLOUDY    34  33  96 CALM      30.01R
BINGHAMTON     MOSUNNY   31  29  92 SE5       29.99R WCI  26
MONTICELLO     SUNNY     32  30  93 CALM      30.02S
$$

NYZ026>034-041>043-311400-
NORTH


CITY           SKY/WX    TMP DP  RH WIND       PRES   REMARKS
WATERTOWN      CLOUDY    38  32  79 NE3       30.03R
FORT DRUM      NOT AVBL
MASSENA        PTSUNNY   35  31  85 CALM      30.09R
SARANAC LAKE   CLOUDY    31  29  92 CALM      30.00R FOG
PLATTSBURGH    PTSUNNY   34  32  92 W3        30.07R
$$

NYZ001>004-010>016-019>021-311400-
WEST


CITY           SKY/WX    TMP DP  RH WIND       PRES   REMARKS
NIAGARA FALLS  LGT RAIN  42  40  92 SE6       29.95S FOG
BUFFALO        CLOUDY    43  39  86 SE7       29.96R
DUNKIRK        CLOUDY    45  37  73 S6        29.95S
JAMESTOWN      CLOUDY    39  36  87 S5        29.93S
WELLSVILLE     CLOUDY    37  33  85 SE3       29.96S
ROCHESTER      CLOUDY    43  37  79 SE3       29.99R
PENN YAN       PTSUNNY   42  37  82 S3        30.00R
$$

             KEY
       WCI = WIND CHILL INDEX
       VSB = VISIBILITY
       HX  = HEAT INDEX
$$



USA.gov is the U.S. government's official web portal to all federal, state and local government web resources and services.